Wind_Speed
19 17 16 15 14 12 11 11 11 13 16 16 16 18 18 19 19 19 18 16 14 11 10 9 7 6 5 4 3 3 2 1 1 1 1 1 1 0 1 1 1 2 2
19 17 16 14 13 11 10 10 10 12 14 15 16 17 18 19 19 19 18 16 15 12 10 9 8 6 5 5 4 3 3 2 1 1 1 1 1 0 1 1 2 2 3
18 17 15 13 12 11 10 10 10 11 13 15 16 17 18 19 19 19 19 18 16 13 12 10 9 8 7 6 5 4 4 3 2 1 1 1 1 1 1 1 2 2 3
18 17 15 13 12 10 9 10 11 11 12 14 16 18 18 18 19 19 19 18 16 14 13 11 10 9 9 8 7 6 5 4 3 2 2 2 2 1 2 2 2 3 3
16 15 14 13 11 10 9 10 9 10 12 14 15 17 18 18 19 19 19 18 17 16 14 13 12 12 11 9 8 8 7 6 5 4 4 4 3 3 3 3 4 4 5
16 15 14 13 11 9 9 8 9 9 11 13 14 16 17 17 18 18 18 18 17 16 15 14 14 13 12 11 10 10 9 8 8 7 7 6 6 6 6 6 6 6 7
15 14 13 13 10 8 7 7 8 9 10 12 13 14 16 17 18 19 19 18 18 16 15 15 16 15 14 13 13 12 11 11 10 10 10 10 10 10 10 10 10 10 10
14 13 13 12 11 8 7 5 6 9 10 11 12 13 15 17 18 19 19 19 18 17 17 17 16 16 16 15 15 14 14 14 14 13 13 13 13 13 13 14 14 14 14
13 13 12 12 11 9 7 5 6 8 9 10 12 13 14 16 17 18 19 19 18 18 18 18 17 17 17 17 17 16 16 16 17 17 17 17 17 17 17 17 18 18 18
13 12 12 11 11 9 7 6 6 8 9 10 12 12 13 15 17 17 18 18 18 19 19 20 19 19 18 18 18 18 18 19 19 19 20 20 20 21 21 21 22 22 23
12 12 12 11 12 10 7 5 5 5 7 9 10 11 12 14 17 17 17 18 18 19 20 21 21 21 21 20 20 20 20 20 21 21 22 23 24 24 24 24 25 25 26
12 11 11 11 11 10 8 6 5 4 5 6 7 8 11 13 14 16 16 17 18 19 20 21 21 22 22 22 22 22 22 22 22 23 24 25 26 26 27 27 27 28 28
13 11 11 11 11 9 8 7 6 5 3 4 6 7 9 12 13 13 14 15 17 18 19 20 21 21 22 22 22 22 22 23 24 25 25 26 27 28 28 29 29 30 31
14 12 12 11 11 10 8 7 6 5 4 5 6 7 9 10 10 11 12 14 16 17 19 20 20 21 21 22 23 23 24 24 25 26 27 27 28 29 30 30 32 33 34
16 14 12 12 11 11 9 8 7 6 5 5 5 6 8 9 10 11 12 13 15 16 18 19 19 20 21 22 23 24 25 26 26 27 27 28 29 30 31 32 33 35 36
18 17 15 14 13 12 11 9 8 8 8 8 8 9 10 11 12 13 14 14 15 16 18 19 20 20 20 22 24 25 26 27 27 28 28 29 30 32 33 34 36 37 38
21 20 19 17 16 15 14 12 11 10 11 11 12 12 12 13 14 15 16 16 17 18 18 19 19 21 22 23 25 26 27 28 30 30 31 32 33 34 36 38 38 40 42
25 24 22 20 19 18 16 15 13 13 13 13 13 14 15 16 17 17 18 19 19 20 21 21 23 23 24 25 26 27 28 30 31 32 34 35 36 38 38 40 41 42 43
29 27 26 24 23 21 20 19 18 17 16 16 16 17 18 18 18 19 20 21 21 22 23 24 26 26 27 27 28 29 30 32 33 34 36 37 38 39 40 41 43 44 45
32 31 29 28 26 25 23 23 22 20 20 19 19 20 20 20 21 22 23 24 25 26 27 27 28 29 29 30 31 32 33 34 36 37 38 40 41 42 43 45 46 47 49
34 33 32 31 29 27 26 25 25 24 23 23 23 24 24 24 25 25 26 27 28 29 29 29 30 31 31 32 33 35 36 37 38 39 40 41 42 44 45 47 48 50 52
35 34 33 32 31 30 29 29 28 28 27 27 27 28 28 28 29 29 29 30 32 32 33 33 33 34 34 35 36 37 38 39 40 41 42 44 45 46 48 50 52 53 55
36 35 35 34 33 33 32 31 30 30 30 30 30 30 31 31 32 32 33 34 35 35 35 35 35 35 36 37 38 39 40 41 42 43 45 47 48 50 51 53 55 57 58
34 34 35 34 34 34 34 32 31 31 32 32 32 33 33 33 33 34 35 36 36 35 35 35 34 36 37 39 39 40 41 42 44 46 48 49 51 53 55 56 57 58 59
34 33 34 34 34 34 34 32 31 31 32 32 33 33 33 33 34 34 34 33 33 33 33 34 35 36 37 39 40 42 44 45 47 49 50 52 54 55 56 57 58 59 59
31 31 31 32 32 33 33 33 33 32 32 32 32 32 33 32 32 32 31 31 32 33 33 34 36 38 40 41 43 45 46 48 50 51 52 54 55 56 57 57 57 58 57
Wind_Direction
325 322 316 307 301 298 289 273 258 243 235 232 233 229 226 221 223 226 224 226 229 231 232 238 240 238 237 240 242 230 233 248 275 293 307 328 345 1 351 339 326 326 329
326 323 320 310 304 296 286 273 260 248 236 232 231 227 224 222 220 220 219 221 225 227 228 231 233 233 232 234 235 230 231 239 253 297 331 329 345 33 26 6 339 337 341
328 328 324 316 308 297 280 268 258 247 239 235 230 226 224 222 221 220 219 220 221 222 223 227 230 232 232 231 231 231 228 232 236 242 281 321 322 326 350 1 346 344 344
331 330 327 320 312 301 286 271 253 243 237 235 230 226 225 222 220 221 218 218 217 218 223 226 228 230 230 230 231 234 233 236 238 246 262 281 296 319 322 329 327 329 328
334 333 331 325 314 301 288 277 256 242 237 232 229 223 222 222 222 220 220 217 217 219 224 226 228 229 231 230 232 237 240 241 244 251 261 274 283 293 299 303 308 312 313
333 335 336 332 322 310 295 273 248 242 237 232 228 224 222 222 220 220 220 219 219 220 223 225 228 230 232 233 236 239 243 245 248 253 260 269 276 282 285 288 292 295 297
333 336 339 339 330 318 305 276 249 240 236 233 227 224 222 222 220 219 220 220 220 222 226 228 229 230 233 236 239 242 247 249 252 256 261 267 273 277 280 282 284 285 288
332 337 341 344 343 333 315 284 251 243 239 234 228 224 222 222 222 219 220 223 224 226 230 231 230 233 236 239 241 244 248 251 253 257 261 266 270 274 277 279 281 282 283
332 337 340 346 348 342 325 296 266 244 236 228 224 221 222 222 220 219 222 226 227 228 231 234 235 237 240 242 244 246 250 254 257 259 262 265 269 272 275 277 279 281 281
331 336 341 348 351 346 332 310 275 246 236 230 224 224 222 219 221 223 225 228 230 231 233 235 238 240 242 244 247 250 253 256 259 261 265 268 270 271 273 276 278 280 281
324 333 339 343 347 346 338 322 303 261 238 228 224 225 220 220 221 224 226 230 233 236 238 238 240 243 245 248 251 254 257 259 261 263 266 269 270 272 273 275 277 279 281
315 324 332 337 341 342 341 331 312 292 248 226 221 222 222 223 225 227 231 235 238 239 239 240 242 245 247 250 253 256 259 261 263 265 268 270 272 273 273 275 276 278 280
304 310 322 330 336 338 338 333 329 313 275 244 232 227 225 226 229 232 236 236 238 239 241 244 246 249 250 252 254 258 261 263 265 268 271 273 275 275 275 276 277 279 280
294 299 308 320 327 330 330 323 319 313 289 267 253 240 233 232 237 242 245 244 244 247 248 248 250 252 251 253 255 259 263 266 269 271 274 275 276 276 277 277 278 279 281
286 289 295 305 314 321 320 312 302 295 285 276 268 257 249 246 249 252 255 257 255 255 254 253 254 255 256 258 259 262 267 271 274 275 276 277 279 279 279 279 279 281 282
278 281 284 291 298 305 312 308 295 290 279 272 268 260 257 257 257 258 261 262 260 261 260 260 261 261 261 263 264 266 270 273 275 277 278 279 280 281 281 281 281 281 282
272 275 279 283 288 292 294 294 297 290 281 272 269 266 264 263 262 263 265 265 265 264 263 263 263 265 268 267 267 269 272 274 277 278 279 280 282 283 284 284 283 282 283
268 269 273 277 280 282 282 282 285 286 284 280 275 271 268 267 266 269 270 271 268 267 266 266 267 269 271 271 271 273 275 277 279 280 282 283 283 284 284 285 285 285 284
264 267 269 271 273 274 276 276 279 282 282 282 281 278 275 272 271 272 273 272 271 270 270 270 270 271 273 275 276 277 278 280 282 283 284 285 285 286 286 286 287 287 287
262 264 266 268 268 269 271 273 275 279 281 282 283 283 279 276 274 274 274 274 273 273 272 273 273 274 275 277 278 279 280 281 283 285 285 286 287 288 288 288 289 289 289
260 261 263 264 265 265 267 270 272 275 277 280 282 281 280 277 275 274 275 277 276 275 273 274 274 275 277 278 279 281 284 285 286 286 287 287 288 288 288 289 289 290 290
258 258 259 260 262 263 265 267 270 272 274 277 280 280 278 277 276 275 275 276 276 275 273 275 277 277 278 280 281 283 285 287 287 288 289 290 290 291 291 291 291 291 291
256 256 256 257 258 260 263 265 268 270 272 275 278 280 278 276 277 276 275 276 276 275 274 275 278 278 280 282 283 284 286 288 289 289 290 291 292 292 293 293 292 292 292
254 253 254 255 257 259 262 264 266 270 271 274 277 278 276 276 277 276 276 277 276 274 275 278 279 281 283 285 286 288 290 292 292 292 293 293 293 293 294 294 294 293 293
252 252 252 254 257 258 260 264 268 271 273 273 276 278 277 277 276 276 275 274 276 278 280 282 284 285 287 289 291 292 293 292 292 293 293 294 294 295 295 295 295 295 295
251 251 253 255 257 260 262 264 266 269 271 272 274 275 275 276 277 276 276 278 281 284 285 287 289 290 292 293 294 294 294 294 295 295 295 296 296 296 297 297 297 297 296
Height
5846 5843 5840 5838 5836 5835 5835 5835 5836 5838 5841 5844 5847 5850 5854 5857 5860 5863 5866 5869 5871 5873 5875 5877 5877 5878 5879 5880 5880 5881 5881 5881 5881 5881 5881 5882 5881 5882 5882 5882 5883 5883 5883
5844 5841 5838 5835 5834 5834 5833 5834 5834 5836 5838 5841 5844 5847 5851 5854 5857 5860 5863 5866 5869 5871 5873 5875 5876 5877 5878 5879 5880 5880 5880 5881 5881 5881 5881 5882 5882 5882 5882 5882 5882 5883 5883
5842 5840 5836 5833 5832 5832 5832 5832 5832 5834 5836 5839 5841 5845 5848 5851 5854 5858 5861 5864 5866 5869 5871 5873 5875 5876 5877 5878 5879 5879 5880 5880 5880 5881 5881 5882 5882 5882 5882 5882 5882 5882 5883
5841 5838 5835 5833 5831 5830 5830 5830 5831 5832 5834 5836 5839 5842 5845 5848 5852 5855 5858 5861 5863 5866 5869 5871 5873 5874 5875 5877 5877 5878 5879 5879 5880 5880 5880 5881 5881 5881 5881 5882 5881 5882 5882
5840 5837 5835 5832 5830 5829 5828 5828 5828 5830 5832 5834 5836 5839 5842 5845 5849 5852 5855 5858 5861 5864 5866 5869 5870 5872 5874 5875 5876 5877 5877 5878 5879 5879 5880 5880 5880 5880 5880 5881 5881 5881 5881
5840 5837 5834 5831 5829 5827 5826 5826 5826 5828 5829 5832 5834 5836 5839 5842 5846 5849 5853 5856 5858 5861 5864 5866 5868 5870 5871 5873 5874 5875 5876 5876 5877 5878 5878 5878 5879 5879 5879 5879 5879 5879 5879
5839 5836 5833 5830 5828 5826 5824 5824 5825 5826 5828 5829 5831 5834 5837 5840 5843 5846 5849 5853 5856 5858 5861 5863 5865 5867 5869 5870 5871 5873 5873 5874 5875 5876 5876 5876 5877 5877 5877 5877 5877 5877 5877
5838 5835 5833 5830 5827 5825 5823 5823 5823 5824 5825 5827 5829 5832 5834 5837 5840 5843 5846 5850 5853 5855 5858 5860 5862 5864 5866 5867 5869 5870 5871 5871 5872 5873 5873 5874 5874 5874 5874 5875 5875 5875 5875
5837 5835 5832 5830 5827 5825 5823 5822 5822 5823 5824 5825 5827 5829 5831 5834 5837 5840 5843 5846 5849 5852 5855 5857 5859 5861 5862 5864 5865 5866 5867 5868 5869 5869 5870 5870 5871 5871 5871 5871 5871 5871 5871
5836 5834 5831 5829 5827 5825 5823 5822 5821 5822 5823 5824 5825 5827 5828 5831 5834 5837 5841 5843 5846 5848 5851 5853 5855 5857 5859 5860 5862 5863 5864 5864 5865 5866 5866 5866 5867 5867 5867 5867 5866 5866 5866
5835 5833 5831 5829 5827 5824 5823 5822 5821 5821 5822 5823 5824 5825 5827 5829 5832 5835 5837 5840 5842 5844 5847 5849 5851 5853 5855 5856 5857 5858 5859 5860 5860 5861 5861 5861 5861 5862 5862 5861 5861 5861 5861
5833 5832 5830 5828 5826 5824 5822 5822 5821 5821 5821 5822 5823 5824 5826 5828 5830 5832 5834 5836 5838 5840 5843 5845 5847 5849 5850 5852 5853 5854 5854 5855 5855 5856 5856 5856 5856 5856 5856 5855 5855 5855 5854
5831 5830 5829 5828 5826 5824 5823 5822 5821 5821 5821 5822 5823 5824 5825 5826 5828 5830 5832 5833 5835 5837 5839 5841 5842 5844 5845 5846 5847 5848 5849 5850 5850 5850 5850 5850 5850 5849 5849 5848 5848 5847 5847
5830 5829 5828 5827 5825 5824 5823 5822 5821 5821 5821 5822 5822 5823 5824 5825 5826 5827 5829 5831 5832 5833 5835 5836 5837 5838 5840 5841 5842 5843 5844 5844 5844 5844 5844 5844 5843 5842 5842 5841 5841 5840 5839
5827 5827 5826 5825 5824 5823 5822 5822 5821 5821 5821 5821 5822 5822 5823 5824 5825 5826 5827 5828 5829 5830 5831 5832 5833 5833 5835 5836 5836 5837 5838 5838 5838 5837 5837 5837 5836 5835 5834 5834 5833 5831 5830
5823 5824 5823 5823 5822 5822 5821 5820 5820 5820 5820 5820 5821 5821 5822 5822 5823 5824 5824 5825 5826 5826 5827 5827 5828 5829 5829 5830 5831 5831 5831 5831 5831 5830 5830 5829 5828 5827 5826 5825 5823 5822 5821
5818 5820 5820 5820 5819 5819 5819 5819 5818 5818 5818 5818 5818 5819 5819 5819 5820 5820 5821 5822 5822 5822 5823 5823 5824 5824 5824 5824 5825 5825 5824 5824 5823 5823 5822 5821 5820 5818 5817 5815 5813 5812 5810
5813 5814 5815 5816 5816 5816 5815 5816 5816 5816 5815 5815 5815 5816 5816 5816 5816 5817 5817 5817 5817 5817 5818 5818 5818 5818 5818 5818 5818 5817 5817 5816 5815 5814 5813 5812 5810 5808 5806 5804 5803 5800 5798
5808 5809 5810 5811 5811 5811 5811 5812 5812 5812 5812 5812 5812 5811 5812 5812 5812 5812 5812 5812 5812 5812 5812 5812 5812 5811 5811 5810 5810 5809 5809 5807 5806 5805 5803 5802 5800 5798 5796 5793 5791 5788 5785
5801 5802 5804 5805 5806 5806 5807 5807 5807 5807 5807 5807 5807 5807 5807 5807 5807 5807 5807 5807 5806 5806 5806 5805 5804 5804 5803 5803 5802 5801 5799 5798 5797 5795 5793 5791 5789 5786 5783 5781 5778 5775 5772
5794 5795 5797 5798 5799 5800 5801 5801 5802 5802 5802 5802 5802 5802 5801 5801 5801 5800 5800 5800 5800 5799 5798 5798 5797 5796 5795 5794 5793 5791 5790 5788 5786 5784 5782 5780 5777 5774 5771 5768 5764 5761 5757
5786 5787 5789 5791 5792 5793 5794 5795 5796 5796 5796 5796 5796 5795 5794 5794 5794 5793 5792 5792 5791 5791 5790 5789 5788 5787 5786 5785 5783 5781 5779 5777 5775 5772 5770 5767 5764 5761 5757 5754 5750 5746 5742
5778 5780 5782 5783 5785 5786 5787 5788 5789 5789 5789 5789 5789 5788 5787 5786 5786 5785 5784 5784 5783 5782 5781 5780 5779 5777 5776 5774 5773 5771 5768 5766 5763 5760 5757 5754 5750 5746 5743 5739 5734 5730 5725
5770 5772 5773 5775 5777 5778 5779 5780 5781 5781 5781 5781 5781 5780 5780 5778 5777 5777 5776 5775 5774 5772 5771 5771 5770 5768 5766 5764 5762 5760 5757 5754 5751 5747 5744 5740 5736 5732 5727 5722 5717 5712 5707
5762 5764 5766 5768 5769 5770 5772 5773 5773 5773 5773 5773 5773 5772 5771 5770 5769 5768 5767 5766 5765 5764 5763 5761 5760 5758 5756 5753 5751 5748 5745 5741 5737 5733 5729 5725 5720 5716 5710 5705 5700 5695 5689
5754 5756 5758 5760 5762 5763 5764 5765 5765 5766 5766 5766 5765 5764 5763 5762 5762 5761 5759 5758 5756 5755 5753 5751 5749 5747 5745 5741 5738 5735 5731 5727 5723 5718 5714 5709 5704 5698 5693 5688 5682 5676 5671